Regional Weather Roundup
Issued by NWS

Home | Current Version | Previous Version | Text Only | Print | Product List | Glossary On
Versions: 1 2 3 4 5 6 7 8 9 10 11 12 13 14 15 16 17 18 19 20 21 22 23 24 25 26 27 28 29 30 31 32 33 34 35 36 37 38 39 40 41 42 43 44 45 46 47 48 49 50
000
ASUS42 KKEY 042110
RWRKEY

FLORIDA REGIONAL WEATHER ROUNDUP FOR THE FLORIDA KEYS
NATIONAL WEATHER SERVICE KEY WEST FLORIDA
500 PM EDT SAT JUL 04 2015

...SOUTH FLORIDA AND THE KEYS...

CITY           SKY/WX    TMP DP  RH WIND       PRES   REMARKS
FORT MYERS     MOSUNNY   94  72  48 VRB7      30.04F HX 102
SW REGIONAL AP PTSUNNY   91  73  55 SE13G22   30.05S THUNDER HX  99
NAPLES         PTSUNNY   80  68  66 SE20G28   30.09R
MIAMI          MOSUNNY   89  71  55 SE15      30.07F HX  95
WEST KENDALL   MOSUNNY   89  73  59 SE12      30.07F HX  97
HOMESTEAD      SUNNY     89  73  59 E14       30.06F HX  97
MARATHON       SUNNY     90  77  65 E9G18     30.05F HX 103
BOCA CHICA NAS MOSUNNY   89  77  67 SE17      30.05F HX 101
KEY WEST INTL  SUNNY     89  79  72 E15       30.06F HX 104

...INTERNATIONAL WEATHER...

CITY           SKY/WX    TMP DP  RH WIND       PRES   REMARKS
NASSAU BAHAMAS MOSUNNY   90  77  66 SE12      30.11S HX 102
CANCUN MEXICO  PTSUNNY   86  77  74 E12       30.02F HX  97
COZUMEL MEXICO CLOUDY    82  75  78 CALM      30.01S

ADJACENT COASTAL WATERS...

STATION/POSITION TIME  SKY/WX   TEMP    WIND        PRES    WAVE
                                AIR SEA DIR/SP/G            HT/PER
                 (UTC)          (F)     (DEG/KT/KT) (MB)    (FT/S)
PULASKI SHOAL LI 2000            86     100/ 10/ 11 1018.2F
SAND KEY         2050            85     100/ 13/ 15 1017.6F
SOMBRERO KEY     2000            86     100/ 15/ 16 1019.0F
LONG KEY         2000            85 89  100/ 11/ 14 1019.4F
MOLASSES REEF    2000            84 86  120/ 11/ 12 1018.9S
FOWEY ROCKS      NOT AVBL

$$



USA.gov is the U.S. government's official web portal to all federal, state and local government web resources and services.